Location: Oulou
(10.7667°N, 12.5167°W)
Time: 11:27:00
(UTC+00:00)

CSL-04 Rocket - Pass Details

Date: 20 September 2019
Orbit: 806 x 860 km, 99.0° (Epoch: 15 October)

Event Time Altitude Azimuth Distance (km) Brightness Sun altitude
Rises 19:02:27 0° 148° (SSE) 3,366 6.5 -4.5°
Reaches altitude 10° 19:05:00 10° 138° (SE) 2,441 5.7 -5.1°
Maximum altitude 19:09:50 34° 75° (ENE) 1,356 4.3 -6.3°
Drops below altitude 10° 19:14:43 10° 12° (NNE) 2,470 6.0 -7.5°
Sets 19:17:17 0° 3° (N) 3,411 6.9 -8.1°
